Wind_Speed
29 28 25 34 27 23 17 14 15 16 17 17 15 18 19 21 19 17 13 15 15 16 16 17 16 11 12 12 12 12 12 12 12 13 13 13 13 13 13 14 15 16 17
34 28 29 38 30 25 20 11 13 17 18 18 18 17 22 20 20 17 15 17 14 19 24 21 20 16 13 13 13 13 14 14 14 14 14 15 15 15 15 16 17 19 20
37 30 24 29 29 25 16 8 17 14 21 20 18 20 23 23 21 18 19 20 15 25 23 28 28 24 17 15 16 17 16 17 16 16 16 16 16 17 18 19 20 22 23
40 46 41 35 31 31 41 33 29 27 25 18 18 20 27 26 24 19 23 23 24 28 27 27 29 28 19 18 21 20 20 18 19 18 18 18 18 19 20 21 22 23 24
32 34 39 40 42 37 24 27 28 30 31 23 25 25 26 30 27 23 23 27 24 29 32 33 36 35 26 19 22 22 22 22 21 21 20 21 21 22 22 23 24 25 26
30 31 32 31 33 31 31 34 31 27 30 31 35 31 27 29 25 23 27 27 26 29 33 34 38 38 28 20 22 23 23 23 23 23 23 23 24 24 24 24 25 26 27
30 28 28 29 28 32 30 30 35 35 33 37 36 37 30 28 29 28 26 31 27 26 23 30 35 33 30 28 24 24 24 24 24 25 25 25 25 25 25 26 27 28 29
26 26 26 27 27 30 30 34 32 32 35 38 42 35 32 33 25 29 35 36 31 28 35 38 38 39 35 30 27 25 26 26 27 27 27 27 27 26 27 28 29 30 30
25 25 24 27 27 29 29 37 34 38 37 30 32 30 28 26 20 26 29 32 37 36 39 40 41 35 33 29 27 26 26 28 29 29 29 28 28 29 30 30 30 31 31
26 25 24 25 27 28 28 31 31 31 35 30 25 26 22 27 24 27 32 38 41 42 46 41 41 36 33 28 27 29 28 28 30 30 31 30 29 30 30 32 31 32 31
25 26 25 25 26 28 27 28 28 30 33 29 37 32 29 30 25 25 27 35 41 38 42 48 42 38 44 31 24 27 31 32 31 31 32 32 31 31 31 33 32 33 34
24 26 26 28 27 28 27 27 27 27 28 28 35 31 32 29 27 28 24 31 37 46 41 43 43 41 37 37 42 38 33 33 30 32 33 35 34 32 32 32 32 33 35
24 24 27 28 30 29 29 28 28 26 26 30 28 28 27 35 32 32 29 30 32 35 37 36 41 36 39 32 25 22 24 27 30 30 31 35 35 31 31 32 34 36 39
30 25 25 27 28 31 31 31 31 28 28 30 28 30 37 29 30 25 28 28 36 33 33 35 39 37 35 34 34 30 31 28 28 31 30 33 33 31 33 34 35 39 42
32 31 29 27 27 29 31 32 31 30 29 30 28 32 31 31 35 34 30 32 27 32 32 27 32 35 39 32 29 30 31 33 33 33 31 32 33 32 34 35 38 40 42
30 29 31 28 27 26 29 31 31 31 30 30 31 33 30 33 28 32 26 30 30 29 30 28 32 36 33 30 29 33 29 26 30 31 30 30 32 33 36 38 39 41 39
16 22 25 26 25 25 25 31 31 29 29 31 26 30 29 26 29 27 32 29 29 27 31 37 32 33 30 30 33 32 30 26 27 29 29 31 34 36 38 39 38 37 37
14 19 19 21 21 24 24 24 27 26 27 28 25 27 26 31 32 37 28 37 28 28 30 36 36 33 35 29 27 30 31 30 29 31 34 36 36 39 42 35 35 35 37
19 15 16 15 18 20 20 18 21 22 22 23 28 27 23 24 29 26 28 31 32 31 31 31 34 33 33 27 29 31 30 33 33 35 37 35 39 35 31 34 33 35 36
19 20 19 18 20 21 19 20 21 24 23 20 19 21 26 28 23 30 30 29 30 29 32 36 35 35 33 33 30 30 31 30 30 29 31 34 25 29 32 34 34 34 37
22 20 20 18 20 19 19 23 22 22 24 22 21 22 23 26 29 23 22 23 28 31 31 33 31 28 29 28 28 29 31 29 26 30 22 24 25 30 32 33 33 35 37
20 23 19 20 24 23 25 21 26 26 22 21 21 20 24 25 25 20 24 23 22 26 31 30 27 26 25 29 29 25 25 27 19 19 20 26 27 29 30 32 34 37 39
19 18 23 24 26 26 28 25 23 24 18 24 22 18 19 24 19 20 21 24 25 23 22 22 23 26 26 24 22 22 17 15 17 19 23 24 25 27 29 32 36 38 39
23 26 25 22 18 22 23 21 19 21 22 21 22 22 23 22 21 20 20 25 23 22 24 24 24 22 21 21 13 12 14 17 19 20 22 23 25 27 30 33 36 36 35
21 20 20 20 21 19 21 19 21 25 24 25 20 24 21 20 21 21 21 21 24 22 21 21 20 17 17 15 9 10 16 18 19 19 22 24 25 26 28 29 32 31 31
14 10 9 9 13 20 18 22 19 17 18 22 20 16 17 19 18 17 18 17 17 18 18 17 15 12 8 6 11 14 15 17 19 20 22 25 28 29 24 22 25 27 27
Wind_Direction
248 248 253 261 262 267 255 258 252 252 252 249 248 251 254 249 247 241 247 238 223 215 233 238 234 247 251 252 251 253 254 250 249 251 254 254 256 260 263 267 270 273 275
251 266 241 254 249 260 244 256 274 269 258 249 245 240 248 250 254 252 243 240 212 238 245 258 248 247 250 258 256 257 256 255 256 253 256 262 266 269 272 275 276 277 279
253 253 268 244 251 270 242 282 285 290 280 264 262 254 251 254 252 248 242 234 227 231 240 257 259 250 253 267 265 258 256 257 255 259 260 261 265 268 269 270 272 274 278
253 257 263 267 258 247 267 290 265 274 270 261 269 255 257 253 252 250 247 239 238 237 249 258 263 262 254 271 272 265 264 261 264 264 267 269 271 273 275 277 279 281 282
257 256 256 259 259 263 248 256 251 248 256 244 266 258 258 259 251 236 244 239 232 238 243 246 257 266 270 266 267 265 265 267 268 270 271 273 275 276 278 279 280 281 282
257 258 259 257 255 254 258 256 251 252 242 251 255 248 250 253 241 230 244 248 250 248 252 255 258 263 268 268 266 261 263 264 267 271 273 274 275 277 277 278 280 281 283
263 256 258 259 260 252 245 255 243 248 247 255 258 249 243 250 233 234 247 247 251 249 248 255 263 274 275 276 272 262 262 264 266 267 269 272 275 277 281 283 283 283 285
265 264 257 257 253 254 238 245 247 252 249 263 253 242 246 248 231 264 241 251 247 240 244 254 260 266 273 274 273 268 267 268 268 269 270 273 274 277 278 280 282 285 288
263 262 256 252 252 251 251 229 244 244 249 259 243 250 239 254 267 261 277 257 247 256 262 256 266 269 270 273 271 268 265 267 269 270 271 273 275 277 279 282 284 286 287
265 261 254 252 250 251 252 245 245 234 236 242 248 245 260 254 264 263 266 240 251 252 256 254 266 276 273 269 269 268 268 268 269 270 271 272 276 278 282 285 285 286 287
265 262 256 252 250 249 249 251 247 246 250 253 244 248 268 251 257 257 267 252 255 239 244 260 266 266 274 278 270 270 271 268 268 271 275 276 276 279 281 283 285 286 289
267 263 259 254 250 246 247 246 248 247 252 244 235 245 241 249 246 261 252 261 251 252 256 252 266 274 271 273 276 279 271 274 278 276 278 280 278 279 281 280 284 287 290
266 262 259 254 252 248 245 246 246 247 252 247 245 240 239 247 251 254 252 261 259 258 265 255 260 260 270 278 280 278 279 278 276 275 278 278 277 278 281 286 286 288 293
268 261 258 256 254 251 248 243 242 245 249 248 250 231 241 237 237 238 258 265 264 257 245 246 263 269 265 269 270 268 280 283 284 282 280 280 281 286 284 284 288 293 296
265 261 258 255 253 251 248 245 244 244 247 250 247 249 245 226 240 237 255 256 257 259 256 261 259 261 262 268 274 270 274 272 277 284 281 282 284 284 283 285 291 294 295
260 251 253 253 252 251 247 245 241 240 241 244 244 247 251 243 233 254 240 256 268 252 247 251 254 264 264 270 272 273 267 271 272 275 280 283 281 282 285 290 292 294 295
260 269 259 252 247 247 246 240 244 242 240 243 247 245 257 241 237 243 249 255 262 246 251 256 259 265 260 262 271 273 272 265 268 276 278 280 282 286 289 290 292 293 296
249 266 269 251 233 243 244 244 241 242 241 244 248 243 237 245 239 245 248 259 260 259 258 257 264 267 275 268 268 268 266 266 267 267 271 276 285 288 286 293 291 294 295
248 258 261 248 242 245 246 248 235 239 241 246 241 245 248 237 238 245 252 260 250 256 258 263 263 274 265 258 266 264 268 276 270 270 278 283 283 285 292 290 295 296 298
259 262 255 237 230 226 235 237 250 243 244 248 263 243 247 238 246 234 249 255 252 246 250 257 269 271 259 264 264 269 274 271 269 277 285 282 291 293 295 293 297 301 300
244 236 245 235 239 236 238 243 247 254 240 249 266 233 238 237 245 248 259 256 241 249 260 267 268 264 266 261 271 272 272 275 284 284 283 291 293 293 294 298 301 300 303
253 231 253 240 247 241 238 248 247 236 247 249 238 257 245 245 237 235 243 253 263 260 255 262 263 264 258 268 271 274 280 282 274 280 287 288 294 296 299 300 302 307 312
253 270 242 256 258 240 243 247 236 233 231 234 245 235 243 237 248 251 255 251 262 260 263 264 258 263 268 274 271 272 267 270 276 282 287 291 297 299 303 306 309 312 313
254 258 255 263 251 231 234 229 238 230 227 225 231 244 242 242 235 243 257 260 256 255 261 254 263 269 267 263 253 257 262 270 284 293 296 299 302 305 309 311 311 315 316
267 264 267 250 238 221 225 229 236 232 230 235 240 241 246 246 243 247 250 245 250 246 254 259 257 252 237 239 238 261 282 290 292 298 299 301 304 308 310 316 315 317 317
271 254 256 240 213 222 221 229 222 232 232 231 229 229 228 233 241 228 236 240 246 249 251 246 240 229 207 239 276 281 285 292 301 302 305 308 310 315 318 318 316 317 317
Height
3128 3126 3128 3132 3134 3135 3135 3136 3137 3139 3140 3141 3144 3145 3146 3145 3148 3149 3151 3153 3154 3154 3152 3154 3156 3158 3159 3160 3160 3161 3162 3162 3162 3163 3163 3163 3163 3163 3163 3162 3162 3162 3161
3125 3119 3123 3126 3127 3130 3130 3133 3136 3136 3137 3139 3140 3142 3140 3142 3145 3147 3148 3149 3152 3151 3150 3151 3152 3155 3156 3157 3158 3158 3159 3159 3160 3159 3159 3160 3160 3160 3159 3159 3159 3158 3157
3119 3117 3115 3112 3119 3124 3124 3131 3133 3134 3135 3136 3138 3138 3136 3139 3142 3144 3145 3146 3147 3149 3149 3148 3148 3150 3153 3155 3154 3155 3155 3155 3155 3156 3156 3156 3156 3156 3155 3155 3154 3153 3153
3112 3114 3113 3115 3114 3116 3121 3121 3128 3131 3133 3133 3135 3136 3134 3135 3138 3140 3142 3143 3144 3146 3145 3146 3145 3146 3150 3152 3152 3152 3152 3152 3153 3152 3153 3153 3152 3152 3152 3151 3150 3149 3148
3102 3104 3107 3108 3111 3113 3113 3117 3119 3123 3127 3126 3128 3130 3131 3130 3133 3136 3137 3138 3140 3141 3141 3142 3141 3140 3143 3148 3148 3149 3149 3149 3149 3149 3149 3149 3148 3148 3147 3146 3145 3144 3143
3094 3096 3098 3100 3103 3105 3106 3109 3112 3114 3119 3120 3121 3122 3124 3127 3128 3130 3132 3133 3134 3134 3135 3136 3136 3138 3140 3144 3143 3143 3144 3144 3145 3145 3145 3144 3144 3143 3142 3141 3140 3138 3137
3086 3089 3090 3092 3094 3096 3101 3101 3103 3105 3109 3114 3114 3114 3116 3120 3123 3126 3127 3128 3132 3131 3130 3129 3132 3135 3137 3138 3139 3138 3139 3139 3139 3138 3138 3138 3138 3137 3137 3136 3135 3133 3131
3079 3081 3083 3084 3086 3088 3091 3094 3095 3099 3102 3104 3102 3106 3108 3111 3113 3120 3124 3125 3127 3126 3126 3125 3128 3130 3132 3132 3134 3135 3135 3134 3134 3133 3133 3133 3132 3131 3130 3129 3128 3126 3124
3074 3076 3076 3077 3079 3081 3083 3087 3090 3091 3096 3099 3099 3103 3103 3107 3107 3109 3113 3115 3118 3121 3120 3120 3122 3125 3126 3127 3128 3128 3128 3128 3128 3128 3127 3127 3127 3126 3125 3123 3121 3119 3117
3068 3069 3071 3071 3073 3075 3077 3080 3083 3086 3088 3092 3094 3095 3098 3101 3103 3106 3105 3109 3111 3112 3112 3113 3115 3117 3119 3121 3122 3122 3121 3121 3122 3121 3120 3120 3120 3120 3118 3117 3115 3112 3110
3062 3063 3064 3066 3067 3069 3072 3073 3076 3080 3082 3084 3087 3090 3092 3095 3097 3100 3102 3105 3107 3106 3107 3108 3109 3110 3113 3114 3114 3115 3116 3115 3114 3114 3114 3113 3113 3112 3111 3110 3107 3105 3103
3055 3056 3058 3059 3060 3063 3065 3068 3069 3072 3074 3077 3081 3082 3085 3088 3091 3092 3097 3100 3102 3102 3102 3102 3104 3106 3106 3107 3109 3109 3109 3109 3107 3108 3108 3107 3107 3105 3104 3102 3100 3097 3096
3049 3049 3050 3051 3052 3055 3058 3061 3063 3065 3066 3069 3073 3077 3079 3082 3085 3087 3090 3093 3094 3095 3096 3096 3098 3100 3101 3100 3101 3102 3101 3101 3102 3100 3100 3100 3101 3099 3096 3095 3093 3090 3087
3040 3042 3042 3043 3044 3046 3050 3053 3055 3058 3060 3062 3064 3067 3072 3075 3079 3081 3082 3086 3085 3086 3088 3091 3092 3094 3094 3094 3094 3094 3095 3097 3096 3096 3094 3094 3092 3090 3089 3088 3085 3082 3078
3031 3032 3033 3034 3037 3038 3041 3044 3047 3050 3053 3055 3056 3061 3064 3067 3071 3073 3075 3078 3079 3079 3082 3083 3085 3086 3087 3087 3087 3087 3089 3090 3089 3089 3088 3087 3086 3084 3082 3079 3077 3073 3070
3020 3022 3023 3026 3028 3030 3032 3035 3038 3043 3046 3048 3051 3054 3055 3060 3063 3065 3067 3070 3072 3073 3074 3076 3078 3080 3081 3080 3081 3082 3082 3082 3082 3082 3082 3081 3080 3077 3075 3071 3068 3065 3061
3013 3014 3016 3018 3020 3023 3025 3028 3031 3034 3038 3040 3042 3046 3048 3051 3055 3058 3060 3063 3065 3067 3068 3070 3072 3073 3073 3074 3075 3075 3075 3075 3076 3075 3074 3073 3071 3069 3065 3063 3059 3056 3052
3010 3009 3010 3012 3014 3016 3019 3021 3024 3027 3030 3032 3036 3039 3042 3045 3047 3051 3052 3055 3057 3059 3062 3063 3065 3066 3066 3067 3067 3067 3068 3068 3068 3068 3066 3064 3062 3061 3058 3054 3051 3047 3043
3004 3004 3005 3006 3008 3011 3014 3016 3018 3021 3024 3026 3029 3032 3035 3037 3040 3043 3046 3048 3051 3053 3054 3056 3058 3059 3059 3060 3060 3061 3061 3061 3060 3060 3058 3056 3056 3052 3049 3047 3042 3038 3034
2998 2999 3000 3001 3003 3006 3009 3011 3013 3015 3018 3021 3023 3026 3029 3031 3034 3036 3039 3041 3043 3045 3047 3050 3052 3052 3053 3054 3054 3054 3054 3053 3052 3052 3051 3049 3047 3045 3042 3037 3034 3029 3026
2992 2993 2995 2996 2999 3001 3003 3005 3008 3009 3012 3015 3017 3020 3022 3025 3028 3029 3032 3034 3037 3040 3042 3044 3045 3046 3047 3048 3048 3047 3047 3046 3046 3047 3044 3041 3039 3037 3034 3030 3026 3022 3018
2985 2987 2988 2990 2991 2993 2997 2999 3001 3004 3006 3008 3011 3014 3016 3019 3021 3024 3027 3029 3032 3034 3036 3037 3040 3041 3042 3043 3042 3041 3041 3040 3041 3040 3037 3033 3032 3029 3026 3023 3018 3013 3008
2979 2981 2982 2984 2984 2986 2990 2993 2995 2998 3000 3003 3006 3009 3011 3014 3016 3019 3021 3024 3027 3029 3031 3033 3034 3035 3036 3036 3036 3034 3035 3035 3035 3034 3031 3028 3026 3022 3019 3014 3009 3004 2999
2973 2974 2974 2975 2976 2980 2984 2987 2990 2992 2996 2999 3002 3004 3007 3009 3012 3015 3017 3020 3022 3024 3025 3027 3029 3029 3029 3030 3029 3030 3031 3030 3028 3026 3023 3021 3019 3016 3012 3007 3001 2996 2990
2966 2966 2966 2967 2971 2973 2978 2981 2984 2987 2991 2994 2997 2999 3002 3005 3007 3010 3013 3015 3017 3019 3021 3022 3022 3022 3023 3024 3026 3026 3025 3023 3022 3021 3018 3016 3013 3011 3007 3001 2993 2989 2983
2960 2960 2961 2962 2964 2968 2973 2976 2979 2983 2986 2990 2992 2995 2998 3001 3003 3006 3008 3011 3014 3015 3016 3016 3017 3019 3019 3021 3022 3022 3021 3019 3017 3015 3013 3010 3006 3003 3002 2997 2989 2984 2979